User: anonymous   Login
Location: Killam
(52.7910°N, 111.8608°W)
Time: 12:51:02
(UTC+00:00)
Language:

NOAA 19 - Orbit

View from above orbital plane
View from above orbital plane
View from above satellite
View from above satellite

Ground track
Ground track

The orbit data is extracted from the following two-line orbital elements,

1 33591U 09005A   23335.17419034  .00000403  00000-0  24114-3 0  9992
2 33591  99.0781  23.5988 0014578 131.0601 229.1833 14.12877725763524
Epoch (UTC): 01 December 2023 04:10:50
Eccentricity: 0.0014578
inclination: 99.0781°
perigee height: 839 km
apogee height: 860 km
right ascension of ascending node: 23.5988°
argument of perigee: 131.0601°
revolutions per day: 14.12877725
mean anomaly at epoch: 229.1833°
orbit number at epoch: 76352

The dashed part of the orbit path shows where the satellite is in the earth's shadow,  

DLR